Volver al catálogo

STARLINK-32198

ActivoComunicacionesVLEO
NORAD 60321·PAYLOAD·🇺🇸 United States

Lanzado Jul 28, 2024 desde Vandenberg Space Force Base

Loading…

Próximos Pases (próximas 24 horas)

TLE

ActualizadoSource: CelesTrak SupGP

Época: Sep 14, 2026, 21:18 UTC

1 60321C 24133W   26257.88798611 -.00011942  00000+0 -35308-3 0  2572
2 60321  53.1560 135.6544 0001084  76.7092 301.2736 15.34373704    16

Sigue STARLINK-32198 en tiempo real con AllMySat

Download on the App Store